Orbital Elements at Epoch 2459000.5 (2020-May-31.0) TDB
Reference: JPL 15 (heliocentric ecliptic J2000)
Element | Value | Uncertainty (1-sigma) | Units |
e | .09211803141900751 | 5.4399e-08 | |
a | 2.197235334686693 | 1.5447e-08 | au |
q | 1.994830341091071 | 1.2773e-07 | au |
i | 6.30024448479032 | 4.9178e-06 | deg |
node | 118.0736491496117 | 4.8589e-05 | deg |
peri | 311.4996734157741 | 5.78e-05 | deg |
M | 357.1146041316062 | 3.3545e-05 | deg |
tp | 2459010.034901115266 (2020-Jun-09.53490112) | 0.0001109 | TDB |
period | 1189.633782697001 3.26 | 1.2545e-05 3.435e-08 | d yr |
n | .3026141365823097 | 3.1911e-09 | deg/d |
Q | 2.399640328282315 | 1.687e-08 | au |
|
| | Orbit Determination Parameters
Additional Information
|